Location: Deneb Observatory
(47.2267°N, 100.4953°W)
Time: 09:16:02
(UTC-05:00)

Iridium 66 - Visible Passes

Search period start: 01 October 2014 00:00
Search period end: 11 October 2014 00:00
Orbit: 776 x 779 km, 86.4° (Epoch: 30 September)

Date Brightness Start Highest point End Pass type
(mag) Time Alt. Az. Time Alt. Az. Time Alt. Az.
01 Oct 8.7 05:56:05 10° NNE 06:00:03 21° ENE 06:03:59 10° ESE visible
01 Oct 8.2 20:36:53 10° SW 20:41:24 30° WNW 20:45:58 10° NNW visible
02 Oct 9.4 05:23:52 10° NE 05:26:05 13° ENE 05:28:18 10° E visible
02 Oct 6.1 07:02:25 10° N 07:07:40 86° E 07:12:52 10° S visible
02 Oct 7.1 20:02:38 10° SSW 20:07:41 51° W 20:12:46 10° N visible
03 Oct 7.1 06:28:59 10° N 06:34:04 50° E 06:39:06 10° SSE visible
03 Oct 9.3 21:13:21 10° W 21:15:38 13° WNW 21:17:56 10° NW visible
04 Oct 8.1 05:55:48 10° NNE 06:00:20 29° ENE 06:04:50 10° SE visible
04 Oct 8.7 20:37:43 10° WSW 20:41:41 22° WNW 20:45:41 10° NNW visible
05 Oct 8.9 05:23:01 10° NNE 05:26:28 18° ENE 05:29:53 10° ESE visible
05 Oct 6.0 07:02:33 10° N 07:07:45 68° W 07:12:54 10° S visible
05 Oct 7.8 20:03:06 10° SW 20:07:53 36° WNW 20:12:42 10° NNW visible
06 Oct 6.4 06:28:59 10° N 06:34:13 70° E 06:39:24 10° S visible
07 Oct 7.4 05:55:39 10° N 06:00:34 40° E 06:05:26 10° SSE visible
07 Oct 9.1 20:38:53 10° WSW 20:42:01 16° WNW 20:45:10 10° NNW visible
08 Oct 8.4 05:22:35 10° NNE 05:26:47 24° ENE 05:30:56 10° SE visible
08 Oct 6.2 07:02:46 10° NNW 07:07:46 48° W 07:12:45 10° SSW visible
08 Oct 8.4 20:03:46 10° SW 20:08:08 27° WNW 20:12:31 10° NNW visible
09 Oct 9.0 04:50:07 10° NE 04:52:51 14° ENE 04:55:35 10° E visible
09 Oct 6.0 06:29:05 10° N 06:34:19 85° W 06:39:32 10° S visible
09 Oct 7.4 19:29:24 10° SSW 19:34:22 45° W 19:39:23 10° N visible
10 Oct 6.7 05:55:36 10° N 06:00:45 56° E 06:05:51 10° SSE visible
10 Oct 9.3 20:40:47 10° W 20:42:24 11° WNW 20:44:02 10° NW visible
